Tracking 17143 objects as of 25-May-2015
HD Live streaming from Space Station

SL-14 R/B

Track SL-14 R/B now!
10-day predictions
SL-14 R/B is classified as:


NORAD ID: 11267
Int'l Code: 1979-011B
Perigee: 598.3 km
Apogee: 620.8 km
Inclination: 82.5 °
Period: 96.7 minutes
Semi major axis: 6980 km
RCS: 4.4018 m2 (large)
Launch date: February 12, 1979
Source: Commonwealth of Independent States (former USSR) (CIS)

Note: This is a ROCKET BODY
Your satellite tracking list
Your tracking list is empty





NASA's NSSDC Master Catalog

Two Line Element Set (TLE):
1 11267U 79011B   15145.17541914  .00000262  00000-0  25409-4 0  9997
2 11267 082.5266 221.2012 0016176 212.2934 147.7295 14.88565330963288

Source of the keplerian elements: AFSPC

N2YO: 380